{"data":{"norad_id":55987,"intl_designator":"2023-042B","name":"STARLINK-5915","alt_names":[],"object_type":"PAYLOAD","status":"ACTIVE","operator":null,"country":"US","launch_date":"2023-03-24","launch_site_code":"AFETR","launch_vehicle":null,"mission":null,"orbit_class":"UNKNOWN","rcs_meters":null,"size_class":null,"mass_kg":null,"dimensions":null,"purposes":["comms"],"wikipedia_slug":null,"has_3d_model":false,"image_url":null,"decayed_at":null,"tle_current":{"epoch":"2026-09-20T08:57:01.129536Z","epoch_age_seconds":117158,"freshness":"FRESH","line1":"1 55987U 23042B   26263.37292974 -.00000799  00000+0 -19528-4 0  9992","line2":"2 55987  43.0043  40.1496 0001261 278.8808  81.1901 15.27575616192642","mean_motion":15.27575616,"eccentricity":0.0001261,"inclination_deg":43.0043,"raan_deg":40.1496,"arg_perigee_deg":278.8808,"mean_anomaly_deg":81.1901,"bstar":-1.9528e-5,"rev_number":19264,"period_min":94.267019250457,"perigee_km":482.19702612212,"apogee_km":483.92742056625,"semimajor_km":6861.1992233442,"source":"CELESTRAK","updated_at":"2026-09-21T09:00:33.349362Z"}}}